Weather in Novy Kistrus

Russia / Ryazan Oblast     54°27′52″N   40°34′30″E
temp.,
°C
wind,
m/s
gust,
m/s
humid.,
%
clouds,
%
prec.,
mm/h
press.,
hPa
HPBL,
m
25 february, thu
thu2500:00−15ssw5995100 0.4 1031401
03:00−14ssw51095100 0.8 1028390
06:00−12ssw61095100 1.6 1024400
09:00−9sw71395100 4.3 1019509
12:00+1wsw61398100 1.9 1014471
15:00+2w513100100 2.3 1012393
18:00+2wnw512100100 0.0 1012318
21:00+1wnw4999100 0.0 1013287
26 february, fri
fri2600:00+1wnw4899100 0.0 1013265
03:00+1wsw3899100 0.1 1013227
06:00+1w410100100 0.3 1011257
09:00+2wsw410100100 0.8 1010257
12:00+2wsw513100100 0.3 1008395
15:00+2w614100100 0.4 1006370
18:00+2w71599100 0.2 1003475
21:00+2w51493100 0.3 1004548
27 february, sat
sat2700:00+2w61586100 0.1 1002855
03:000w6148894 0.1 1002661
06:00−1w5139193 0.0 1001568
09:00+1w7129694 0.0 1000654
12:00+1wnw6129996 0.1 1001746
15:00+1wnw7139898 0.1 1002828
18:00−4nnw51089100 0.6 1004657
21:00−7n41092100 0.6 1008418
28 february, sun
sun2800:00−9nnw499391 0.0 1009279
03:00−10n369591 0.0 1012158
06:00−11nnw379489 0.0 1013182
09:00−10nnw489253 0.0 1015427
12:00−7nnw478991 0.0 1016556
15:00−5nnw478896 0.1 1017724
18:00−5nnw4992100 0.1 1018604
21:00−8nnw359495 0.1 1021105
1 march, mon
mon100:00−9nnw349677 0.0 102379
03:00−10nnw339577 0.1 102452
06:00−10nnw239774 0.0 102533
09:00−8nnw269667 0.1 1027217
12:00−4nw358979 0.0 1027581
15:00−2wnw458589 0.1 1027739
18:00−5wsw4892100 0.0 1026157
21:00−5wsw41093100 0.0 1024247